Flag for Poland Weather past 2 weeks in Dąbrowa Górnicza, Poland

Now
81 °F

Passing clouds.


Feels Like: 81 °F
Forecast: 61 / 83 °F
Wind: 8 mph from East

Location: Katowice Airport

Current Time: Jul 26, 2014 at 4:10:59 PM

Latest Report: Jul 26, 2014 at 3:30 PM


Visibility: N/A

Pressure: 29.95 "Hg

Humidity: 51%

Dew point: 61 °F

Location of Dąbrowa GórniczaLocation

Historic Weather in Dąbrowa Górnicza — Graph

°F

Dąbrowa Górnicza temperature yesterday

Maximum temperature yesterday: 79 °F (at 5:30 PM)
Minimum temperature yesterday: 63 °F (at 12:00 AM)
Average temperature yesterday: 68 °F

Past Weeks' High & Low Weather Summary

 TemperatureHumidityPressure
High88 °F (Jul 20, 3:00 PM)100% (Jul 12, 5:00 AM)30.15 "Hg (Jul 12, 5:00 AM)
Low54 °F (Jul 13, 2:00 AM)30% (Jul 14, 4:00 PM)29.74 "Hg (Jul 11, 3:00 PM)
Average69 °F72%29.96 "Hg
* Reported Jul 11 3:00 PM — Jul 26 3:00 PM, Dąbrowa Górnicza, Weather by CustomWeather, © 2014

Note: Actual official high and low records may vary slightly from our data, if they occured in-between our weather recording intervals... More about our weather records

Advertising

Dąbrowa Górnicza weather history for previous 24 hours

 ConditionsComfort  
Time TempWeatherWind HumidityBarometerVisibility
3:00 PM
Jul 26
81 °FPassing clouds.6 mph51%29.95 "HgN/A
2:30 PM82 °FPassing clouds.6 mph42%29.98 "HgN/A
2:00 PM81 °FPassing clouds.7 mph51%29.98 "HgN/A
1:30 PM79 °FScattered clouds.5 mph54%29.98 "HgN/A
1:00 PM79 °FScattered clouds.3 mph58%29.98 "HgN/A
12:30 PM79 °FScattered clouds.5 mph54%29.98 "HgN/A
12:00 PM79 °FScattered clouds.6 mph61%29.98 "HgN/A
11:30 AM77 °FPassing clouds.5 mph69%30.01 "HgN/A
11:00 AM75 °FPassing clouds.5 mph69%30.01 "HgN/A
10:30 AM75 °FPassing clouds.2 mph69%30.01 "HgN/A
10:00 AM75 °FPassing clouds.2 mph69%30.01 "HgN/A
9:30 AM73 °FPassing clouds.3 mph74%30.01 "HgN/A
9:00 AM72 °FPassing clouds.3 mph78%30.01 "HgN/A
8:30 AM70 °FPassing clouds.5 mph83%30.01 "HgN/A
8:00 AM68 °FSunny.5 mph88%29.98 "Hg10 mi
7:30 AM66 °FPassing clouds.3 mph88%29.98 "HgN/A
7:00 AM64 °FClear.2 mph94%29.98 "Hg5 mi
6:30 AM59 °FFog.3 mph100%29.98 "Hg1 mi
6:00 AM61 °FFog.1 mph100%29.98 "Hg1 mi
5:30 AM59 °FFog.1 mph94%29.98 "Hg1 mi
5:00 AM59 °FFog.No wind94%29.98 "Hg1 mi
4:30 AM59 °FFog.3 mph100%29.98 "Hg2 mi
4:00 AM59 °FFog.2 mph100%29.98 "Hg2 mi
3:30 AM59 °FFog.5 mph100%29.98 "Hg2 mi
3:00 AM59 °FFog.5 mph100%29.98 "Hg2 mi
2:30 AM61 °FFog.3 mph94%29.98 "Hg3 mi
2:00 AM61 °FClear.3 mph100%30.01 "Hg4 mi
1:30 AM61 °FClear.5 mph94%29.98 "Hg10 mi
1:00 AM64 °FClear.3 mph88%29.98 "Hg10 mi
12:30 AM64 °FClear.5 mph94%29.98 "Hg10 mi
12:00 AM66 °FClear.3 mph83%29.98 "Hg10 mi
11:30 PM
Jul 25
66 °FClear.2 mph88%29.98 "Hg10 mi
11:00 PM68 °FClear.5 mph78%30.01 "Hg10 mi
10:30 PM66 °FClear.5 mph78%30.01 "Hg10 mi
10:00 PM66 °FClear.5 mph78%29.98 "Hg10 mi
9:30 PM68 °FPassing clouds.7 mph73%29.98 "HgN/A
9:00 PM70 °FPassing clouds.7 mph69%29.98 "HgN/A
8:30 PM73 °FPassing clouds.5 mph69%29.98 "HgN/A
8:00 PM73 °FPassing clouds.5 mph74%29.95 "HgN/A
7:30 PM75 °FPassing clouds.2 mph69%29.95 "HgN/A
7:00 PM75 °FPassing clouds.3 mph65%29.95 "HgN/A
6:30 PM77 °FPassing clouds.7 mph57%29.95 "HgN/A
6:00 PM77 °FPassing clouds.5 mph54%29.95 "HgN/A
5:30 PM79 °FPassing clouds.5 mph54%29.95 "HgN/A
5:00 PM77 °FPassing clouds.2 mph57%29.95 "HgN/A
4:30 PM77 °FPassing clouds.6 mph54%29.95 "HgN/A
4:00 PM75 °FPassing clouds.5 mph61%29.95 "HgN/A
Weather by CustomWeather, © 2014

See weather overviewHow to use our weather pages